GFSSW_850_spd_231.txt.gz
Wind_Speed
19 18 17 16 15 14 11 9 7 6 6 6 6 8 10 11 10 8 8 3 3 3 1 3 8 4 2 1 4 2 4 1 4 3 6 10 11 6 6 19 8 13 11 16 30
19 18 17 16 16 15 13 11 8 6 6 6 7 8 11 13 12 12 4 5 4 2 2 7 4 1 1 1 4 4 4 8 7 3 4 14 6 2 4 5 2 12 15 31 27
21 19 18 17 16 16 14 13 9 7 7 6 7 8 9 12 12 3 4 5 5 3 6 6 2 2 2 2 4 4 5 5 12 18 19 7 9 3 7 4 9 22 30 36 23
21 19 18 17 16 15 14 13 11 8 7 7 7 9 10 8 1 4 2 3 7 8 7 3 3 1 1 3 7 2 9 8 18 25 9 6 8 3 12 4 9 17 26 35 30
23 21 19 18 16 15 14 13 12 9 7 7 7 8 9 6 7 7 2 2 9 11 9 5 3 3 3 3 1 5 7 12 20 23 19 20 12 5 5 5 4 17 29 33 31
25 22 20 18 17 15 13 13 12 9 7 7 8 8 9 5 3 4 7 7 8 12 8 7 4 9 6 2 1 3 7 13 9 9 7 10 6 3 5 4 7 15 28 34 31
25 23 21 20 18 16 14 12 10 8 7 8 9 9 13 18 6 5 6 7 10 9 4 3 6 2 4 6 4 6 5 7 3 2 2 11 3 6 10 11 14 21 23 33 31
26 23 22 21 19 17 14 10 8 6 6 7 8 10 10 8 11 14 8 7 11 11 8 6 6 6 3 6 7 5 4 4 5 1 2 3 7 10 18 15 15 13 26 29 28
27 24 22 21 19 18 12 6 7 6 6 7 8 7 11 6 13 16 10 12 13 11 9 11 9 3 1 4 5 5 3 4 9 4 2 3 7 13 8 17 18 16 15 20 26
29 25 21 19 16 12 8 5 8 4 5 5 7 5 10 1 8 17 13 12 13 9 13 10 3 2 3 4 4 4 3 2 4 5 3 4 8 11 13 14 22 18 18 17 29
31 27 22 18 11 7 9 2 7 3 8 12 18 19 26 17 10 6 16 21 21 10 4 1 2 7 9 7 6 3 3 5 8 8 1 5 5 9 10 5 6 12 17 19 27
33 28 23 18 11 4 8 7 12 11 15 20 26 32 31 20 10 16 10 17 10 7 3 3 7 9 4 3 6 6 5 10 9 11 6 4 5 5 4 3 6 11 13 19 22
34 30 24 18 10 4 1 8 8 13 5 19 14 18 29 23 18 26 10 21 6 7 6 7 12 5 3 5 7 7 6 6 10 2 3 2 6 4 4 3 10 15 15 15 15
33 30 26 18 4 3 2 8 10 9 4 7 5 5 11 10 7 25 22 17 4 11 7 5 7 8 5 7 2 3 7 6 3 3 4 3 4 5 3 7 4 21 27 24 26
31 29 23 17 11 1 9 11 9 1 4 3 2 2 14 11 2 9 28 21 10 7 7 9 4 5 4 7 4 9 5 3 4 3 3 4 2 6 3 7 9 15 23 29 31
30 26 21 13 5 6 12 13 3 5 6 4 4 2 5 5 2 1 8 24 17 5 1 10 4 5 7 3 5 5 1 6 4 4 1 4 2 3 3 1 3 14 22 31 40
29 24 15 6 5 10 11 3 4 4 5 5 4 6 1 5 6 7 4 5 6 4 4 5 6 2 2 4 5 6 5 3 4 4 4 3 3 5 4 4 4 6 22 31 38
27 20 6 3 8 15 8 5 1 2 3 4 5 8 4 6 4 8 4 3 8 4 3 4 5 5 5 4 3 3 4 5 5 3 4 4 4 4 1 2 9 15 24 31 37
26 12 7 5 9 12 5 3 5 3 5 7 8 4 5 5 3 3 4 3 5 6 2 1 2 3 7 4 3 2 3 2 3 2 3 3 1 3 5 13 20 22 28 35 36
26 7 8 10 10 6 4 4 3 3 5 4 4 7 5 6 5 6 4 6 3 8 1 1 2 2 2 3 10 5 1 2 3 2 4 4 4 2 8 9 13 19 24 30 33
18 3 12 12 4 2 3 4 1 5 4 5 4 5 5 6 5 6 10 5 8 5 11 6 2 5 1 4 3 3 2 4 3 4 5 2 5 5 3 2 6 13 25 29 33
16 4 16 8 6 3 1 3 8 3 5 5 4 3 2 3 4 4 4 5 11 4 4 5 2 2 3 7 3 2 4 5 4 2 2 2 5 4 5 5 11 15 20 24 27
19 8 11 9 3 3 6 3 3 4 3 2 2 2 2 1 1 3 5 8 14 5 2 1 2 2 6 5 4 6 3 4 3 3 5 4 5 4 6 7 14 18 23 25 26
9 4 6 10 6 3 5 3 4 6 3 2 3 5 4 4 4 2 4 2 6 2 9 3 3 6 6 5 1 4 5 1 4 3 3 5 10 9 8 9 16 20 21 22 22
7 2 3 4 4 5 4 5 4 1 2 3 3 2 3 2 3 2 1 4 3 2 3 4 3 3 4 5 2 4 6 6 6 7 6 4 7 7 3 4 5 8 14 18 17
6 6 6 8 10 6 4 5 8 9 1 1 4 4 3 5 5 4 3 3 5 2 3 2 2 2 4 7 6 6 8 9 9 7 7 7 6 2 5 6 7 12 12 11 14
7 3 4 5 5 3 2 5 4 9 5 7 2 3 3 4 13 10 10 8 11 6 5 3 5 3 3 2 2 5 5 4 3 2 2 4 4 4 5 9 13 20 20 11 13

GFSSW_850_spd_234.txt.gz
Wind_Speed
19 17 16 15 14 13 12 11 9 7 6 5 5 7 9 10 10 9 6 4 4 4 1 4 8 8 6 4 4 4 5 1 3 5 4 8 10 5 2 7 9 11 7 5 22
20 19 17 16 14 13 12 12 10 8 7 6 6 7 9 11 11 7 3 5 5 4 4 8 8 5 4 3 4 4 4 9 5 3 2 9 6 15 4 6 5 12 11 7 23
21 19 18 17 16 14 13 12 11 9 7 6 6 8 9 11 6 2 3 6 4 4 9 8 4 3 3 3 5 4 5 5 6 11 12 7 10 6 7 2 10 14 13 23 28
22 20 19 18 17 15 14 13 12 9 7 7 7 7 9 8 1 3 3 3 8 9 9 5 3 3 3 2 3 1 7 6 6 9 4 4 2 6 6 6 4 11 18 30 25
24 21 19 18 17 16 15 13 12 10 7 7 7 8 8 5 4 5 2 2 9 12 9 5 1 3 2 3 2 3 3 5 9 15 15 8 12 5 9 8 3 9 19 30 23
26 23 20 19 17 16 14 12 11 9 7 6 7 9 8 4 2 5 7 6 8 12 9 4 0 3 2 3 3 4 4 10 7 9 5 5 1 7 10 12 9 10 20 30 30
28 25 22 20 19 16 15 11 8 7 6 5 6 8 12 14 6 5 8 8 6 11 7 3 4 3 1 2 2 3 4 6 4 1 3 5 4 4 9 10 9 11 16 25 32
30 27 23 20 20 16 14 8 5 5 6 5 6 9 9 8 8 12 10 11 10 9 10 6 8 6 2 1 4 2 4 1 4 1 3 6 6 9 15 13 15 14 15 19 29
32 29 24 21 19 15 11 6 4 6 6 6 7 6 9 6 8 14 12 10 11 11 10 8 6 1 1 4 5 6 2 3 5 5 1 4 6 5 13 15 20 19 19 21 22
32 30 26 21 17 11 9 3 6 4 4 5 7 4 7 1 0 12 15 12 8 7 4 3 3 3 4 5 2 2 2 3 4 0 2 1 6 6 10 9 15 14 15 18 24
32 31 27 21 16 6 7 3 6 3 5 8 9 12 9 8 15 5 18 15 12 2 1 2 3 6 8 6 6 2 3 4 6 5 1 4 4 9 8 2 2 5 8 13 16
32 31 27 21 16 1 5 5 10 8 13 23 24 29 29 13 5 12 10 12 7 6 3 4 7 7 4 4 5 5 3 7 8 4 6 2 4 4 4 8 17 19 20 19 14
32 32 27 20 11 1 2 8 10 12 5 19 11 13 13 23 17 25 11 14 5 6 7 8 9 8 6 4 3 3 5 5 8 4 2 1 5 5 5 22 26 27 23 25 25
33 30 28 17 3 3 4 6 10 9 5 7 4 2 5 6 7 31 20 13 4 12 8 6 4 8 4 5 6 4 8 5 3 4 4 2 3 5 4 9 10 23 28 29 30
34 30 24 15 6 2 7 8 8 3 5 4 2 2 8 7 1 8 25 19 10 7 7 9 7 4 3 7 6 8 4 4 3 5 4 1 5 6 2 7 7 16 24 29 31
33 28 18 9 7 10 12 8 2 5 6 6 5 7 3 5 5 4 11 9 9 5 1 7 3 7 8 3 4 1 3 6 4 4 2 5 6 3 2 1 3 11 20 25 29
31 23 9 10 10 15 10 0 5 3 5 7 5 6 2 6 6 7 3 5 3 4 5 3 3 3 3 3 3 5 5 2 3 1 5 4 3 3 3 2 4 7 18 26 30
30 12 6 6 9 13 9 5 2 2 3 3 5 7 4 8 5 8 4 4 7 4 2 5 6 4 3 2 7 3 7 5 6 4 4 2 5 5 5 8 7 10 17 24 29
27 6 10 10 10 9 5 3 5 2 3 5 6 5 4 5 5 6 6 8 6 7 2 2 3 4 5 3 2 4 2 4 6 3 2 3 3 1 3 2 6 13 23 27 29
24 2 14 12 10 4 5 4 3 2 4 2 2 3 3 6 3 5 8 5 7 8 2 3 1 2 4 3 5 3 5 2 2 4 5 4 3 5 3 6 7 12 19 23 26
20 4 15 15 7 3 2 4 4 1 1 3 1 2 1 3 2 2 6 3 5 6 10 2 4 3 2 6 3 6 4 5 3 3 5 3 4 5 5 2 3 9 17 21 23
15 4 14 14 5 3 1 5 6 3 2 3 3 2 2 3 4 4 3 3 10 1 3 1 2 2 1 4 4 4 2 3 4 2 1 2 5 5 5 2 6 11 14 19 21
21 7 10 11 3 4 7 5 3 5 2 1 2 2 3 2 1 3 3 3 11 4 2 3 1 2 7 5 2 5 1 4 5 2 5 4 4 5 3 2 5 10 16 22 24
9 4 6 9 7 3 5 5 6 13 3 2 2 1 4 2 3 3 2 0 6 3 8 3 2 5 6 5 2 3 4 3 5 3 3 5 4 5 5 4 8 13 18 21 23
6 3 3 4 3 3 1 3 4 5 6 5 3 1 1 3 0 2 1 2 2 2 4 3 3 3 4 5 3 3 6 4 7 5 6 4 6 6 5 3 5 10 16 18 20
7 6 6 5 8 4 3 1 4 6 4 4 2 1 1 3 4 5 3 3 4 0 2 2 3 1 3 7 5 6 9 8 6 4 6 7 8 2 3 1 6 11 14 20 17
8 5 4 4 5 2 0 3 3 6 4 8 4 2 3 5 8 9 8 5 5 6 6 5 5 3 4 2 3 5 9 7 4 4 5 5 5 2 2 4 8 14 20 17 15

GFSSW_850_spd_237.txt.gz
Wind_Speed
19 16 14 12 11 11 11 10 9 6 5 4 4 5 6 7 8 6 1 6 10 8 7 8 9 11 10 6 5 4 2 4 4 4 1 5 9 3 3 2 7 6 3 4 14
20 17 15 14 12 11 10 10 9 7 5 4 4 5 7 8 8 1 6 8 6 7 6 12 14 11 4 4 2 2 3 5 2 2 6 13 6 12 2 4 6 4 12 6 21
21 18 17 15 13 12 10 9 9 8 5 5 4 5 7 8 3 3 7 8 7 6 12 13 10 8 4 4 3 2 2 3 3 8 8 10 9 2 1 4 7 8 9 8 23
22 19 17 16 14 13 11 9 8 8 6 5 4 4 6 5 2 3 6 10 8 11 14 11 7 5 4 5 4 3 5 4 3 4 3 6 9 5 5 2 5 6 9 13 24
25 21 18 17 15 13 12 10 8 7 5 5 4 4 5 4 4 7 6 7 11 12 11 9 6 4 5 4 5 5 2 5 7 10 8 6 10 4 7 7 4 5 6 16 23
27 24 20 18 16 14 12 11 7 6 5 4 5 5 4 3 6 9 8 7 11 14 11 6 3 2 4 3 3 5 4 6 6 7 4 4 2 6 10 10 7 6 10 17 25
27 26 22 19 17 15 14 9 5 5 4 4 5 6 8 8 8 8 10 10 9 14 11 6 3 2 4 3 3 1 4 5 7 4 3 8 4 8 8 10 13 11 11 16 24
27 26 23 19 17 14 12 7 4 4 4 5 5 6 7 6 8 13 10 13 12 13 11 7 2 3 2 3 1 2 2 5 2 3 1 5 7 8 7 8 14 14 13 14 20
27 26 23 20 16 12 10 8 4 6 5 6 6 5 7 4 7 13 14 12 13 11 8 6 2 3 3 2 2 2 3 3 3 1 1 4 5 4 4 9 16 17 15 14 15
29 26 23 19 14 8 8 5 7 6 4 5 7 4 5 2 3 8 16 11 13 11 7 6 4 3 3 3 2 4 3 2 4 3 2 3 10 5 9 5 6 6 6 9 13
32 27 24 19 12 3 4 4 4 2 7 8 10 13 4 4 9 3 15 16 10 6 6 2 5 10 8 6 2 5 3 6 8 6 4 5 5 8 12 16 15 17 15 12 7
33 28 23 17 8 2 5 4 7 5 11 17 23 25 21 11 6 9 11 9 6 9 5 4 10 9 5 6 6 6 6 8 8 5 8 4 2 9 13 15 16 17 18 15 16
33 28 22 15 4 3 7 8 8 7 4 8 5 5 3 13 12 11 14 10 5 8 10 11 4 6 9 6 7 7 7 3 4 4 2 5 4 7 10 15 17 20 17 18 19
33 27 19 12 3 4 3 8 9 6 3 5 2 2 0 3 6 19 16 8 4 13 7 7 8 9 8 10 9 8 9 5 3 6 6 3 5 5 8 10 14 16 19 20 23
32 24 16 10 7 8 8 6 6 1 5 6 4 4 1 2 6 3 22 13 13 8 6 9 7 9 8 13 10 6 7 7 5 7 4 6 5 7 5 6 9 13 15 17 19
30 20 11 6 10 12 9 3 3 0 4 4 4 6 1 3 3 3 5 5 4 6 3 9 1 4 9 3 10 4 4 3 2 4 7 10 10 8 6 5 7 10 13 15 16
28 13 11 11 13 13 9 3 1 2 6 7 5 8 3 7 7 7 3 3 3 6 11 13 13 2 4 7 4 4 5 7 8 7 9 6 8 5 8 7 7 7 10 13 16
27 7 9 11 12 11 7 2 3 2 3 3 5 5 4 10 5 9 5 5 8 4 3 6 11 6 1 7 8 9 10 8 12 11 10 4 7 7 8 9 6 7 8 11 16
28 7 12 12 12 9 4 1 1 2 2 5 4 3 2 4 5 3 6 3 5 11 2 2 5 1 6 2 2 5 7 2 3 2 5 5 4 4 7 6 5 7 9 13 14
28 13 9 14 12 6 1 2 2 3 2 1 2 2 2 5 4 3 3 2 3 11 2 6 5 6 4 1 10 1 3 3 2 6 10 5 6 4 14 7 3 5 8 10 13
22 8 5 15 8 2 0 1 3 2 1 2 1 1 1 0 0 1 1 3 2 6 11 8 6 9 8 6 5 2 2 3 1 3 7 11 4 6 11 6 3 2 4 8 11
16 5 12 13 2 2 1 4 4 3 1 0 2 2 3 2 1 2 1 3 8 2 2 5 4 8 12 6 2 7 4 3 5 5 1 3 3 7 7 5 1 2 4 7 9
19 8 7 12 2 2 4 3 3 4 2 1 2 1 1 1 1 4 4 3 6 3 3 5 4 3 2 2 3 6 3 4 5 1 11 9 3 7 5 4 3 3 5 8 9
8 4 5 9 7 3 5 2 5 5 1 1 1 2 2 1 3 5 5 1 4 1 5 2 3 5 8 2 1 3 4 5 2 3 5 8 4 9 10 8 7 4 7 11 11
6 2 3 5 3 6 2 3 4 4 5 4 1 2 2 2 2 1 2 1 2 1 1 1 4 4 10 9 6 8 9 8 10 10 8 10 11 8 10 10 3 5 9 12 15
5 4 4 5 5 5 0 1 3 4 4 3 2 2 2 3 2 2 4 3 4 4 2 2 3 2 5 7 8 12 11 11 12 12 13 13 16 5 3 2 4 6 9 13 15
7 4 3 3 3 3 0 2 0 6 3 4 7 3 2 2 5 6 7 2 1 3 6 3 3 3 4 2 5 9 11 14 8 7 8 8 2 6 4 4 6 10 16 16 11

GFSSW_850_spd_240.txt.gz
Wind_Speed
15 13 11 9 8 7 6 6 5 3 3 2 2 3 3 4 6 4 4 4 11 16 13 11 10 9 10 9 8 6 7 10 12 8 6 1 3 0 3 5 9 5 1 3 13
17 15 13 11 9 8 6 5 5 4 3 3 3 3 4 5 5 7 7 10 10 11 12 13 13 13 12 10 8 11 9 9 3 0 3 5 4 5 5 7 7 8 3 5 14
19 16 14 12 10 9 7 6 4 4 3 4 3 2 3 4 2 4 11 11 9 10 9 11 12 13 10 11 9 9 10 3 6 5 7 7 7 4 6 9 8 11 7 9 14
21 18 15 14 12 11 8 6 5 4 3 4 4 3 2 1 0 7 11 12 9 10 14 12 12 12 9 10 10 9 7 6 3 5 7 7 7 6 7 1 4 5 5 11 15
21 19 16 14 13 13 10 8 6 5 4 4 5 4 1 4 3 9 11 14 11 15 13 12 12 8 9 8 9 11 6 7 8 8 8 10 10 5 10 7 2 0 5 10 14
21 20 17 14 12 12 11 9 6 4 4 4 4 4 2 7 7 11 12 14 14 15 13 10 6 6 5 6 11 6 5 7 8 11 8 9 9 5 12 9 5 2 7 8 13
21 19 18 15 11 11 10 7 3 2 3 3 3 3 6 6 8 11 12 13 14 14 12 8 5 7 5 7 6 6 10 11 13 14 10 9 11 10 11 7 11 9 9 10 12
23 19 17 15 11 8 7 6 4 2 3 3 3 3 5 7 10 11 14 13 13 13 7 9 3 5 7 2 7 10 7 11 12 13 10 10 15 15 13 11 14 13 11 10 15
25 20 18 15 11 6 5 5 3 3 4 4 3 2 2 3 7 12 13 12 12 11 9 6 4 7 7 11 11 11 11 9 8 11 7 14 13 9 7 9 14 15 16 13 8
26 22 17 14 10 4 4 4 6 4 2 2 5 4 5 1 5 9 14 13 13 13 9 10 9 10 10 9 11 6 12 8 11 12 10 14 13 7 2 5 5 6 12 8 4
26 22 17 13 7 3 4 4 3 1 4 9 8 9 2 5 1 5 15 14 13 17 15 15 11 13 13 7 6 9 7 9 8 8 9 12 12 8 3 6 7 6 7 6 4
28 23 16 11 4 4 6 3 4 5 8 11 12 12 15 9 7 11 17 16 15 17 18 8 15 14 6 8 10 9 11 12 10 8 11 12 10 6 6 8 8 8 11 10 9
29 23 16 8 6 6 7 5 4 5 7 2 2 1 1 12 15 14 20 21 16 17 15 18 3 6 12 11 12 13 12 9 11 10 14 10 12 11 8 10 10 10 11 12 12
28 22 16 5 6 4 2 7 7 3 4 4 2 2 2 2 6 15 18 17 13 16 17 13 15 11 10 11 11 14 12 11 8 12 14 17 12 20 14 9 8 9 8 10 11
27 20 14 13 6 6 9 7 5 1 3 4 5 1 1 4 5 3 16 15 16 15 7 15 14 13 15 14 16 14 5 11 11 12 15 14 12 13 16 14 9 9 9 9 10
25 16 13 11 10 13 12 4 1 5 2 4 3 4 1 1 1 2 9 15 10 18 13 18 4 9 12 7 10 6 8 11 11 12 14 19 15 14 18 16 10 9 8 9 9
26 15 15 14 12 11 11 0 5 4 2 3 3 6 2 3 2 2 5 11 11 13 18 18 20 16 10 15 12 12 14 12 14 14 15 18 18 8 10 11 11 8 8 9 9
24 16 11 11 12 11 7 5 5 3 2 2 3 5 5 6 3 1 6 8 6 6 11 14 13 17 17 17 18 19 19 15 20 15 16 8 14 7 11 11 9 8 7 7 8
25 18 5 11 10 10 7 5 3 1 3 4 8 8 4 3 5 2 0 1 4 8 2 8 12 7 8 8 10 19 13 14 18 20 10 10 3 6 11 11 9 7 6 6 8
27 15 3 12 10 6 5 2 2 1 3 3 6 1 7 1 7 4 6 2 4 6 8 5 8 6 16 10 3 10 5 9 11 20 19 14 16 9 19 15 9 7 4 5 6
20 8 5 13 8 5 5 1 3 2 2 4 4 6 7 8 7 6 2 5 1 4 5 4 6 9 11 7 10 12 8 6 8 7 8 13 10 9 16 14 10 5 2 4 6
12 6 13 12 6 1 3 3 4 4 5 5 6 8 7 3 5 4 4 2 2 1 1 3 4 8 15 18 13 17 19 13 7 9 8 9 7 6 11 10 6 3 0 4 6
15 8 8 10 4 1 3 3 4 4 4 3 5 5 3 5 5 5 4 3 3 1 1 5 6 7 7 5 6 9 13 13 8 5 20 13 6 8 10 9 5 3 3 4 6
7 4 3 8 5 5 6 6 6 3 7 6 5 5 6 7 5 3 6 6 1 3 3 2 8 11 12 8 1 4 6 8 10 7 13 15 5 10 8 8 6 5 5 6 6
5 3 3 4 1 10 6 5 9 6 4 4 6 12 10 7 8 8 6 6 7 4 3 4 9 10 12 14 13 15 15 13 15 15 15 14 14 6 5 7 12 3 5 7 9
7 6 4 13 8 8 3 5 6 3 4 5 10 2 7 11 9 4 6 6 5 4 5 4 7 7 13 12 12 17 17 17 18 17 17 16 16 12 7 6 5 4 6 8 13
7 5 5 5 6 6 5 3 2 4 7 2 3 7 9 4 3 5 7 5 5 7 7 7 6 6 10 3 9 12 13 16 18 16 12 14 6 7 5 4 4 7 10 14 15

GFSSW_850_spd_246.txt.gz
Wind_Speed
12 10 8 7 6 6 6 6 5 4 5 5 5 5 6 7 8 9 10 10 18 9 13 9 11 12 12 17 17 19 11 14 19 20 15 9 4 10 4 12 4 7 19 17 21
13 12 9 8 7 6 6 7 6 6 5 5 5 5 6 8 11 17 12 11 12 13 17 12 13 12 16 15 19 17 12 18 22 18 18 4 6 11 3 9 16 10 29 28 24
14 13 11 8 7 7 7 7 7 6 5 5 5 5 6 8 9 8 15 16 12 12 14 10 10 12 15 18 19 18 16 21 23 17 15 17 7 8 11 12 17 18 25 23 22
15 14 12 10 8 7 7 6 6 6 5 4 5 5 5 6 3 4 10 11 11 13 11 13 13 15 15 15 19 17 22 23 26 16 14 13 15 16 12 17 9 15 22 22 16
17 15 13 11 9 7 7 6 6 6 5 4 5 5 5 7 10 5 5 9 12 15 13 13 15 15 15 17 17 15 19 21 20 16 19 15 18 18 14 22 13 15 17 27 13
19 16 13 11 10 8 6 5 3 4 4 4 5 6 6 12 0 5 5 8 11 13 12 14 11 13 18 16 16 17 14 19 25 16 20 18 20 18 19 25 16 6 6 10 13
20 18 14 11 8 6 5 4 0 3 4 4 5 6 9 16 3 6 14 11 12 11 12 11 13 11 13 16 14 18 17 15 19 18 18 19 20 19 23 17 23 7 7 13 14
20 18 14 12 8 5 2 2 0 2 4 5 5 5 9 4 8 11 13 12 11 12 13 9 11 14 18 18 22 12 15 17 17 22 22 17 20 18 20 16 25 13 12 13 13
21 19 15 11 7 3 2 1 1 2 3 4 5 5 11 9 11 13 15 14 12 12 13 11 10 14 16 15 13 14 14 19 20 21 19 19 20 18 19 22 22 14 15 14 12
23 19 15 11 5 3 2 3 2 2 4 6 8 8 14 9 8 14 14 15 13 11 14 13 11 13 14 13 14 16 17 15 17 16 11 14 17 16 24 24 24 22 14 16 14
25 21 14 9 7 6 5 7 3 3 11 12 10 11 2 5 5 8 15 14 16 13 14 18 12 14 17 18 20 17 20 18 20 16 12 14 15 19 18 25 13 9 13 18 4
24 20 12 10 8 7 8 5 5 8 12 19 21 19 16 7 10 11 14 16 18 15 17 14 18 16 18 19 20 19 17 17 18 21 19 17 14 18 18 13 12 15 10 9 10
25 18 10 5 4 3 3 7 8 9 8 11 9 11 7 13 17 14 16 19 17 18 18 18 18 20 23 14 17 18 16 17 21 22 20 18 20 17 23 13 12 4 9 10 7
25 20 14 6 5 5 5 11 9 6 5 12 9 7 8 8 9 16 17 16 18 20 18 17 21 21 20 16 15 18 20 18 21 19 15 18 15 18 20 15 13 16 12 13 15
25 20 13 11 5 9 11 12 9 4 5 13 11 5 3 11 2 13 15 19 17 18 18 20 20 20 19 20 18 21 16 19 20 19 17 24 14 14 17 21 19 18 21 22 18
24 21 13 8 7 10 13 11 6 5 5 6 7 5 13 13 11 6 6 16 17 19 20 21 27 23 22 19 17 17 20 18 18 17 17 20 18 18 18 20 22 23 25 21 19
25 20 12 5 4 13 12 7 6 6 3 5 2 1 7 8 6 9 11 12 12 13 15 20 22 22 24 22 20 17 18 12 16 15 16 19 20 19 17 17 26 21 23 21 22
26 16 9 5 7 12 8 8 8 10 1 6 2 7 11 12 10 13 8 14 14 18 15 14 16 13 7 15 13 20 14 5 9 16 16 18 19 3 15 19 37 37 27 19 18
30 11 7 1 8 9 9 7 10 9 6 6 9 12 15 15 8 12 13 12 14 11 4 9 16 11 8 9 11 10 13 14 6 19 16 19 18 1 6 2 15 19 27 20 17
29 12 0 3 10 9 7 12 20 2 5 8 10 10 13 14 10 11 11 9 9 6 3 8 17 11 5 8 11 10 8 8 3 3 6 13 10 7 20 9 18 13 8 14 14
17 11 1 9 11 11 9 15 6 9 4 6 10 14 15 13 13 16 14 14 2 2 5 6 9 18 17 14 15 10 6 3 3 5 4 7 4 13 21 16 15 24 4 6 6
12 7 14 12 10 11 11 3 6 9 10 8 9 12 14 16 17 16 14 14 7 1 6 2 4 11 14 15 16 2 4 1 4 2 3 2 2 4 11 18 19 16 14 22 11
16 13 2 9 5 9 15 9 13 11 12 9 11 10 11 15 15 13 12 4 3 2 4 7 5 9 14 17 7 6 6 10 3 3 8 4 5 3 12 7 11 9 18 15 6
9 5 10 14 4 7 12 13 14 16 16 11 15 19 16 16 14 12 15 5 6 1 8 5 9 12 12 17 6 7 13 9 13 8 9 11 14 7 7 10 13 21 23 30 20
5 6 9 6 12 19 15 14 19 19 22 16 13 13 16 17 16 17 18 17 10 11 5 5 11 13 15 17 16 15 12 13 17 17 15 15 18 12 13 10 7 16 17 21 9
10 9 15 22 21 17 12 14 18 17 17 15 15 14 17 18 16 18 18 16 15 16 13 11 10 12 16 17 15 16 18 19 19 19 22 19 18 13 12 22 21 17 12 7 8
10 14 13 11 17 14 14 15 13 18 15 14 15 16 17 12 15 20 19 16 11 9 13 11 11 11 14 17 17 13 17 14 17 19 14 16 15 1 2 1 6 9 7 10 13